Preview of NWS' New Version of Forecast
This preview is not operational and should not be used for support decisions.

Regional Weather Roundup (RWR)

Issued by National Weather Service (NWS)

                            
000
ASUS44 KMEG 220410
RWRTN 
TENNESSEE HOURLY STATE WEATHER ROUNDUP
NATIONAL WEATHER SERVICE MEMPHIS TN
1100 PM CDT SUN APR 21 2019

TNZ002-004-019-021-049-052-054-088>092-220500-
WEST TENNESSEE
  
CITY           SKY/WX    TMP DP  RH WIND       PRES   REMARKS
MEMPHIS INTL   FAIR      62  47  57 S8        30.10S                  
NWS MEMPHIS      N/A     58 N/A N/A MISG        N/A                   
JACKSON        FAIR      52  49  89 S3        30.12R                  
DYERSBURG      FAIR      59  53  80 CALM      30.11S                  
SOMERVILLE     CLEAR     55  52  88 CALM      30.10S                  
COVINGTON      CLEAR     57  54  88 CALM      30.10S                  
UNION CITY     CLEAR     57  52  82 CALM      30.09R                  
BOLIVAR        CLEAR     54  50  87 CALM      30.11S                  
PARIS          CLEAR     55  46  71 CALM      30.11S                  
HUNTINGDON     CLEAR     55  50  82 CALM      30.11R                  
LEXINGTON        N/A     54  48  82 CALM      30.11S                  
SELMER         CLEAR     63  45  51 S3        30.11S                  
SAVANNAH       CLEAR     54  52  94 S3        30.12S                  
$$

TNZ008-025-027-028-033-062-065-066-220500-
NORTH MIDDLE TENNESSEE
  
CITY           SKY/WX    TMP DP  RH WIND       PRES   REMARKS
NASHVILLE      FAIR      56  40  55 S5        30.16R                  
DICKSON        CLEAR     55  39  54 CALM      30.13S                  
PORTLAND       CLEAR     52  45  76 CALM      30.15S                  
CLARKSVILLE    FAIR      54  41  61 SE3       30.13S                  
LEBANON        CLEAR     50  45  81 CALM      30.14S                  
SMYRNA         FAIR      50  45  83 CALM      30.17S                  
MURFREESBORO   CLEAR     52  43  71 CALM      30.15R                  
COOKEVILLE     CLEAR     46  43  87 CALM      30.17S                  
LIVINGSTON     CLEAR     54  32  43 CALM      30.17S                  
GALLATIN       CLEAR     50  46  87 CALM      30.18S                  
CROSSVILLE     FAIR      46  35  65 CALM      30.20S                  
ROCKWOOD       CLEAR     54  34  47 NW5       30.18S                  
$$

TNZ061-075-076-078-094-096-097-220500-
SOUTH MIDDLE TENNESSEE
  
CITY           SKY/WX    TMP DP  RH WIND       PRES   REMARKS
LAWRENCEBURG   PTCLDY    52  46  82 CALM      30.15R                  
LEWISBURG      CLEAR     46  45  93 CALM      30.15S                  
FAYETTEVILLE   CLEAR     61  37  41 E6        30.15F                  
TULLAHOMA      CLEAR     48  43  81 CALM      30.17R                  
WINCHESTER     CLEAR     50  43  76 CALM      30.17S                  
MCMINNVILLE    CLEAR     48  45  87 CALM      30.17S                  
COLUMBIA       CLEAR     52  52 100 CALM      30.13S                  
SHELBYVILLE    CLEAR     50  45  81 E5        30.16S                  
$$

TNZ017-018-042-046-047-220500-
NORTHEAST TENNESSEE
  
CITY           SKY/WX    TMP DP  RH WIND       PRES   REMARKS
TRI CITIES     FAIR      44  41  89 CALM      30.19S                  
ELIZABETHTON   FAIR      43  43 100 CALM      30.19S                  
GREENEVILLE    CLEAR     48  41  76 CALM      30.18S                  
$$

TNZ012-013-036-069-073-074-220500-
CENTRAL EAST TENNESSEE
  
CITY           SKY/WX    TMP DP  RH WIND       PRES   REMARKS
KNOXVILLE      FAIR      53  43  68 NE3       30.17S                  
OAK RIDGE      FAIR      51  45  79 CALM      30.20R                  
DOWNTOWN KNOXV CLEAR     48  48 100 CALM      30.19S                  
GATLINBURG     CLEAR     48  45  87 CALM      30.18S                  
MORRISTOWN     CLEAR     48  45  87 CALM      30.17S                  
JACKSBORO      CLEAR     46  41  81 CALM      30.21S                  
$$

TNZ083-085-099-220500-
SOUTHEAST TENNESSEE
  
CITY           SKY/WX    TMP DP  RH WIND       PRES   REMARKS
CHATTANOOGA    FAIR      51  43  74 W3        30.18R                  
DAYTON         CLEAR     50  45  81 CALM      30.17S                  
$$

SKY/WX REPORTED AS FAIR MEANS FEW OR NO CLOUDS BELOW
12 THOUSAND FEET.